DECAYED

CZ-6A DEB, 55206 (Decayed)

Orbit data source: Space-Track

CZ-6A DEB, 55206 was space debris in SSO originally from a launch on Fri, 11 Nov 2022 UTC launched from the Taiyaun Space Center, China (TSC). Debris objects in space refer to the collection of defunct objects orbiting the Earth. Examples of debris include non-operational satellites, rocket bodies, and fragments generated from explosions, collisions, or faulty payload assembly.

Not visible in the next 10 days
Identifier
55206, 2022-151VX
Orbit
Decayed
Country
Flag of CNCN / PRC
Related business
Manufacturer
SAST
Mission
Decayed spacecraft
Bus & Motor
Unknown
Mass
Unknown
Launch date (UTC)
2022-11-11 (4 years ago)
Launch vehicle
Unknown
Launch site
Taiyaun Space Center, China (TSC)
Object type
Payload
Rocket body
Debris
Shape & HBR
Unknown shape, 0.1 m
Radar Cross Section
Medium (>0.1 m² and <1 m²)

Expand to show TLE details & history
Last TLE update: 3 months ago

TLE from 3 months ago
0 CZ-6A DEB
1 55206U 22151VX  26146.71305927  .05622261  56360-1  17270-1 0  9995
2 55206  98.5940 243.9694 0027965 286.2125  73.6070 15.96470317182576
Epoch: 2026-05-26T17:06Z
TLE epoch observation values (Epoch: 2026-05-26T17:06:48.320Z)
Latitude
-0.00014°
Longitude
102.98553°
Altitude
282.165 km
Speed
7.741 km/s
True Right ascension
16h 15m 52s
True Declination
0° 00' 00"
Sunlit
Object was in full shadow at epoch
Visualization orbit readout
Latitude
Unknown
Longitude
Unknown
Altitude
Unknown
Speed
Unknown
Apparent Right ascension
Unknown
Apparent Declination
Unknown
Sunlit
N/A
Visualization observer readout
Local Sidereal Time
12:37:39
Azimuth
Unknown
Elevation
Unknown
Doppler factor
Unknown
Orbital elements
Apogee altitude
299.765 km
Perigee altitude
262.519 km
Semi-major axis
6,659.279 km
Eccentricity
0.0028
Inclination
98.594°
RAAN
243.9694°
Arg. of periapsis
286.2125°
True anomaly
73.91473°
Mean anomaly
73.607°
Eccentric anomaly
73.76084°
Mean motion
3.99395 °/min
Orbital period
90.14 mins
BSTAR
0.01727
Loading maneuver chart data...
Computing Atmospheric mass density...
Loading historical data...
Loading historical data...
Loading historical data...
Loading historical data...
Loading historical data...
Loading historical data...
Loading historical data...

Documentation

Showing up to 5 results
|